WGS F1 (USA 195)

Last updated on Tue Jul 01 2025 00:02:44 GMT+0000 (Coordinated Universal Time)

1 32258U 07046A 25181.45067336 -.00000267 00000+0 00000+0 0 9992 2 32258 0.0540 88.5780 0001018 118.3763 191.5389 1.00275018 48806
UTC large
Height (km)
Speed (km/s)
/
Latitude / Longitude
Inclination (degrees)
Orbital Period (minutes)
Azimuth
Elevation
Range (km)
Doppler Factor

Next 0 passes for location: London (51.5072 / 0.1276)

Sorry there are no passes over London.